Location: French River
(46.0362°N, 80.5373°W)
Time: 23:39:10
(UTC-04:00)

ISS - Visible Passes

Search period start: 25 September 2017 00:00
Search period end: 05 October 2017 00:00
Orbit: 401 x 407 km, 51.6° (Epoch: 26 September)

Date Brightness Start Highest point End Pass type
(mag) Time Alt. Az. Time Alt. Az. Time Alt. Az.
25 Sep -1.7 19:55:07 10° SSE 19:56:32 12° SE 19:57:35 11° ESE visible
25 Sep -1.5 21:29:15 10° SW 21:30:17 19° SW 21:30:17 19° SW visible
26 Sep -3.5 20:37:06 10° SW 20:40:13 44° SE 20:40:35 42° ESE visible
27 Sep -2.6 19:45:13 10° SSW 19:47:59 26° SE 19:50:42 10° E visible
27 Sep -2.5 21:21:02 10° WSW 21:23:22 40° W 21:23:22 40° W visible
28 Sep -3.9 20:28:36 10° WSW 20:31:52 90° WSW 20:33:19 31° ENE visible
28 Sep -0.4 22:05:38 10° WNW 22:05:59 12° WNW 22:05:59 12° WNW visible
29 Sep -3.6 19:36:20 10° SW 19:39:31 54° SSE 19:42:44 10° ENE visible
29 Sep -2.5 21:12:59 10° W 21:15:48 37° NNW 21:15:48 37° NNW visible
30 Sep -3.2 20:20:23 10° W 20:23:36 51° NNW 20:25:32 21° NE visible
30 Sep -0.5 21:57:35 10° WNW 21:58:11 14° WNW 21:58:11 14° WNW visible
01 Oct -3.7 19:27:52 10° WSW 19:31:08 77° NNW 19:34:25 10° ENE visible
01 Oct -2.3 21:04:58 10° WNW 21:07:50 31° N 21:07:50 31° N visible
02 Oct -2.6 20:12:17 10° W 20:15:21 35° NNW 20:17:26 17° NE visible
02 Oct -0.6 21:49:22 10° WNW 21:50:04 15° NW 21:50:04 15° NW visible
03 Oct -2.3 20:56:48 10° WNW 20:59:37 29° N 20:59:37 29° N visible
04 Oct -2.4 20:04:10 10° WNW 20:07:07 30° N 20:09:09 16° NE visible
04 Oct -0.8 21:40:59 10° NW 21:41:47 16° NW 21:41:47 16° NW visible
